{"data":{"norad_id":53154,"epoch":"2026-05-24T09:13:23.925216Z","epoch_age_seconds":127928,"freshness":"FRESH","line1":"1 53154U 22083Y   26144.38430469  .00000067  00000+0  22294-4 0  9992","line2":"2 53154  53.2162 184.3140 0001015  75.4830 284.6274 15.08838809212787","mean_motion":15.08838809,"eccentricity":0.0001015,"inclination_deg":53.2162,"raan_deg":184.314,"arg_perigee_deg":75.483,"mean_anomaly_deg":284.6274,"bstar":2.2294e-5,"rev_number":21278,"period_min":95.437630011278,"perigee_km":539.04486414805,"apogee_km":540.44919460601,"semimajor_km":6917.884029377,"source":"CELESTRAK","updated_at":"2026-05-25T13:38:17.320048Z"}}